[[{"header":{"parameterUnit":"m.s-1","parameterCategory":2,"la1":30.2992,"la2":30.254,"lo1":-89.0895,"lo2":-89.0443,"dy":0.0025,"dx":0.0025,"nx":19,"ny":19,"refTime":"2026-05-22T03:00:00:Z","depth":"0","parameterNumber":2,"parameterNumberName":"U-component_of_CURRENTS"},"data":[0,0,0,0.1707,0.1709,0.1754,0.1754,0.1725,0.1725,0,0,0,0,0,0,0,0,0,0,0,0.1673,0.1673,0.1706,0.1709,0.1754,0.1754,0.1725,0.1725,0,0,0,0,0,0,0,0,0,0,0,0.1672,0.1673,0.1674,0.1709,0.1754,0.1754,0.1725,0.1705,0,0,0,0,0,0,0,0,0,0,0.1668,0.1649,0.1673,0.1674,0.171,0.1754,0.1754,0.1704,0.1706,0.1689,0,0.1709,0,0.1737,0.1724,0.1724,0,0,0,0.1677,0.1648,0.1682,0.1674,0.1711,0.1754,0.1725,0.1706,0.1707,0.1691,0.1709,0.171,0.1737,0.1723,0.1723,0.1805,0.1806,0,0,0.1675,0.1655,0.1681,0.1684,0.1738,0.1723,0.1727,0.1707,0.1701,0.1709,0.171,0.1736,0.1723,0.1723,0.1805,0.1806,0,0,0,0.1689,0.1653,0.1688,0.1683,0.1711,0.1726,0.1729,0.1701,0.1719,0.171,0.1736,0.1723,0.1723,0.1803,0.1805,0.1792,0,0,0,0.1686,0.1665,0.1687,0.1672,0.1712,0.1718,0.1723,0.172,0.172,0.1736,0.1723,0.1723,0.1802,0.1804,0.179,0.1774,0,0,0,0.1668,0.1662,0.1678,0.1671,0.1711,0.1719,0.1734,0.172,0.1737,0.1723,0.1723,0.1802,0.1804,0.1788,0.1772,0.1784,0,0,0,0.1632,0.1675,0.1677,0.1723,0.1711,0.1758,0.1735,0.1762,0.1757,0.1723,0.1802,0.1805,0.1788,0.1771,0.1783,0.176,0.1763,0,0,0.1673,0.1679,0.1708,0.1713,0.1756,0.1749,0.1777,0.1769,0.1788,0.1794,0.1796,0.1791,0.1772,0.1784,0.1899,0.1898,0,0,0,0.1713,0.1725,0.1742,0.1762,0.1792,0.1784,0.1791,0.1812,0.1843,0.1805,0.1844,0.1833,0.184,0.1826,0.1827,0.1643,0.1816,0.1816,0.1815,0.1688,0.172,0.1748,0.1776,0.1791,0.1814,0.1829,0.1862,0.1863,0.1908,0.1862,0.1917,0.1905,0.1904,0.1716,0.1914,0.1914,0.1914,0.1914,0.1711,0.1727,0.1733,0.1774,0.177,0.1781,0.1835,0.1861,0.1914,0.1919,0.1926,0.1863,0.1903,0.1703,0.1914,0.1914,0.1914,0.1914,0.1914,0.1686,0.1702,0.1718,0.1735,0.1734,0.1753,0.1781,0.1834,0.1899,0.1919,0.1907,0.1907,0.1694,0.1919,0.1919,0.1919,0.1919,0.1919,0.1919,0.1651,0.1675,0.1675,0.1694,0.1689,0.1696,0.1749,0.1791,0.1854,0.19,0.19,0.1703,0.1918,0.1875,0.192,0.1919,0.1919,0.1919,0.1919,0.1653,0.164,0.1652,0.1647,0.1642,0.1637,0.1688,0.1754,0.181,0.1842,0.1666,0.1901,0.1899,0.1899,0.1858,0.1895,0.1895,0.1895,0.1895,0.1625,0.1628,0.1625,0.1616,0.1609,0.1614,0.1618,0.1659,0.1635,0.1572,0.1551,0.1512,0.1522,0.1495,0.1504,0.1454,0.1388,0.1387,0.1386,0.1607,0.1616,0.1609,0.1608,0.1596,0.159,0.156,0.1499,0.1408,0.1346,0.1295,0.1316,0.124,0.127,0.1216,0.1244,0.116,0,0]},{"header":{"parameterUnit":"m.s-1","parameterCategory":2,"la1":30.2992,"la2":30.254,"lo1":-89.0895,"lo2":-89.0443,"dy":0.0025,"dx":0.0025,"nx":19,"ny":19,"refTime":"2026-05-22T03:00:00:Z","depth":"0","parameterNumber":3,"parameterNumberName":"V-component_of_CURRENTS"},"data":[0,0,0,0.0163,0.0165,0.0244,0.0245,0.0444,0.0446,0,0,0,0,0,0,0,0,0,0,0,0.0131,0.0131,0.0163,0.0165,0.0244,0.0245,0.0444,0.0446,0,0,0,0,0,0,0,0,0,0,0,0.0131,0.0131,0.0131,0.0165,0.0244,0.0245,0.0443,0.0362,0,0,0,0,0,0,0,0,0,0,0.0274,0.0229,0.0131,0.0131,0.0165,0.0244,0.0245,0.0357,0.0367,0.0432,0,0.0431,0,0.0443,0.046,0.0461,0,0,0,0.0177,0.022,0.0237,0.0131,0.0166,0.0244,0.0212,0.0362,0.0373,0.0445,0.0433,0.044,0.0446,0.0462,0.0463,0.075,0.0752,0,0,0.0173,0.0159,0.0229,0.0244,0.0172,0.0209,0.0214,0.0368,0.0379,0.0434,0.0445,0.045,0.0463,0.0465,0.0749,0.0751,0,0,0,0.0152,0.0155,0.0167,0.0236,0.0243,0.0211,0.0217,0.0372,0.0374,0.0447,0.0452,0.0464,0.0467,0.0747,0.075,0.0717,0,0,0,0.015,0.0142,0.0164,0.0159,0.0239,0.0297,0.0218,0.0363,0.0381,0.0451,0.0464,0.0469,0.0745,0.0748,0.0715,0.0716,0,0,0,0.013,0.0141,0.0143,0.0157,0.0186,0.0294,0.0305,0.0367,0.0384,0.0461,0.047,0.0744,0.0748,0.0712,0.0713,0.0797,0,0,0,0.0123,0.0121,0.0143,0.0147,0.0185,0.0249,0.0303,0.0369,0.0429,0.0465,0.0746,0.0749,0.0711,0.071,0.0794,0.0763,0.0775,0,0,0.0115,0.012,0.0122,0.0143,0.0181,0.024,0.0341,0.0438,0.052,0.07,0.0706,0.0716,0.0712,0.0796,0.0974,0.0979,0,0,0,0.0116,0.0115,0.013,0.0158,0.0213,0.0319,0.0405,0.0496,0.0667,0.0573,0.08,0.0801,0.0853,0.0831,0.0837,0.0817,0.0766,0.0766,0.0765,0.0098,0.0118,0.0146,0.0191,0.0251,0.0391,0.0505,0.0668,0.07,0.0802,0.0835,0.0964,0.0942,0.0945,0.0926,0.09,0.0899,0.0899,0.0899,0.0097,0.012,0.0174,0.0207,0.0324,0.0427,0.065,0.0717,0.093,0.0924,0.0976,0.0874,0.0949,0.0927,0.0899,0.0899,0.0899,0.0899,0.0899,0.0081,0.0107,0.0124,0.0217,0.0341,0.0481,0.067,0.0805,0.0934,0.0994,0.1016,0.1016,0.0946,0.102,0.102,0.102,0.1021,0.1021,0.1021,0.0079,0.0104,0.016,0.0248,0.0332,0.0477,0.0695,0.0817,0.0961,0.1025,0.1026,0.1013,0.1002,0.0939,0.1027,0.1026,0.1026,0.1025,0.1025,0.0104,0.0118,0.0195,0.0266,0.0441,0.0569,0.072,0.0905,0.1027,0.1088,0.1065,0.107,0.1092,0.1087,0.103,0.1138,0.1138,0.1138,0.1138,0.0144,0.0149,0.0272,0.0383,0.0523,0.0634,0.0807,0.0958,0.1075,0.1106,0.1102,0.1033,0.1029,0.1044,0.1041,0.0983,0.1076,0.1076,0.1076,0.0218,0.0233,0.0334,0.0414,0.0567,0.0687,0.0829,0.0984,0.1082,0.1073,0.1087,0.1089,0.0985,0.0981,0.0998,0.0995,0.0897,0,0]}],[{"header":{"parameterUnit":"m.s-1","parameterCategory":2,"la1":30.2992,"la2":30.254,"lo1":-89.0895,"lo2":-89.0443,"dy":0.0025,"dx":0.0025,"nx":19,"ny":19,"refTime":"2026-05-22T03:00:00:Z","depth":"2","parameterNumber":2,"parameterNumberName":"U-component_of_CURRENTS"},"data":[0,0,0,0.1074,0.1078,0.1284,0.1285,0.1416,0.1417,0,0,0,0,0,0,0,0,0,0,0,0.101,0.1012,0.1073,0.1079,0.1284,0.1285,0.1415,0.1417,0,0,0,0,0,0,0,0,0,0,0,0.1009,0.1012,0.1014,0.108,0.1284,0.1285,0.1415,0.1289,0,0,0,0,0,0,0,0,0,0,0.1105,0.1055,0.1011,0.1014,0.1081,0.1284,0.1285,0.1285,0.1297,0.1289,0,0.1349,0,0.1388,0.1424,0.1424,0,0,0,0.1065,0.1045,0.1119,0.1015,0.1083,0.1283,0.1187,0.1293,0.1307,0.1305,0.1351,0.1357,0.139,0.1424,0.1425,0.1595,0.1596,0,0,0.1053,0.1021,0.111,0.1128,0.1171,0.1181,0.1194,0.1302,0.1317,0.1352,0.1361,0.1392,0.1425,0.1426,0.1594,0.1595,0,0,0,0.103,0.1013,0.1087,0.1122,0.1172,0.1187,0.1202,0.1312,0.1344,0.1362,0.1394,0.1426,0.1427,0.1593,0.1594,0.1605,0,0,0,0.1023,0.1002,0.1082,0.1061,0.1171,0.1259,0.1209,0.1336,0.135,0.1393,0.1426,0.1428,0.1591,0.1593,0.1602,0.1577,0,0,0,0.0995,0.0997,0.1037,0.106,0.1157,0.1259,0.1296,0.134,0.1369,0.1424,0.1428,0.1591,0.1593,0.16,0.1574,0.1595,0,0,0,0.0931,0.0978,0.1036,0.1085,0.1155,0.1271,0.1296,0.1384,0.1435,0.1426,0.1592,0.1594,0.1599,0.1572,0.1594,0.1482,0.1481,0,0,0.0942,0.0978,0.1001,0.1058,0.1123,0.1239,0.1341,0.1424,0.147,0.1541,0.1546,0.1603,0.1574,0.1595,0.1629,0.1622,0,0,0,0.097,0.0984,0.1011,0.1073,0.1179,0.131,0.1415,0.1476,0.1588,0.1519,0.1652,0.1634,0.1646,0.1577,0.1574,0.1606,0.1606,0.1605,0.1605,0.0945,0.0979,0.1017,0.1095,0.119,0.1367,0.1466,0.1586,0.1615,0.1689,0.168,0.1751,0.1682,0.1677,0.174,0.174,0.174,0.174,0.174,0.093,0.0968,0.1026,0.1086,0.1246,0.1377,0.1556,0.1621,0.173,0.1749,0.1761,0.1639,0.1673,0.1742,0.1742,0.1742,0.1741,0.1741,0.1741,0.0906,0.0942,0.0983,0.1111,0.1261,0.1433,0.1544,0.1653,0.1731,0.1759,0.1697,0.1695,0.1715,0.178,0.178,0.178,0.178,0.178,0.178,0.0917,0.0948,0.1051,0.1167,0.1265,0.1403,0.1562,0.1603,0.1658,0.169,0.169,0.1764,0.1763,0.1719,0.178,0.178,0.178,0.178,0.178,0.0957,0.103,0.1117,0.1214,0.1367,0.141,0.1509,0.1533,0.1591,0.1578,0.1656,0.1659,0.1636,0.1638,0.1593,0.1618,0.1618,0.1618,0.1618,0.1047,0.1072,0.1223,0.1314,0.1389,0.1422,0.1375,0.1295,0.1347,0.1299,0.1312,0.1266,0.128,0.1235,0.1247,0.1193,0.1113,0.1112,0.1111,0.1157,0.1169,0.1284,0.1346,0.1399,0.1387,0.1268,0.1009,0.0888,0.1087,0.1179,0.1593,0.1562,0.157,0.1531,0.1538,0.1463,0,0]},{"header":{"parameterUnit":"m.s-1","parameterCategory":2,"la1":30.2992,"la2":30.254,"lo1":-89.0895,"lo2":-89.0443,"dy":0.0025,"dx":0.0025,"nx":19,"ny":19,"refTime":"2026-05-22T03:00:00:Z","depth":"2","parameterNumber":3,"parameterNumberName":"V-component_of_CURRENTS"},"data":[0,0,0,-0.0449,-0.0447,-0.0325,-0.0325,-0.0045,-0.0043,0,0,0,0,0,0,0,0,0,0,0,-0.0473,-0.0472,-0.0449,-0.0447,-0.0326,-0.0324,-0.0046,-0.0043,0,0,0,0,0,0,0,0,0,0,0,-0.0473,-0.0473,-0.0472,-0.0447,-0.0326,-0.0324,-0.0046,-0.016,0,0,0,0,0,0,0,0,0,0,-0.029,-0.0349,-0.0473,-0.0472,-0.0446,-0.0326,-0.0324,-0.0167,-0.0153,-0.0076,0,-0.0069,0,-0.0069,-0.0025,-0.0024,0,0,0,-0.0412,-0.0361,-0.0331,-0.0472,-0.0446,-0.0326,-0.037,-0.016,-0.0144,-0.0057,-0.0065,-0.0056,-0.0064,-0.0023,-0.0021,0.0297,0.0298,0,0,-0.0419,-0.0438,-0.0343,-0.0322,-0.0425,-0.0375,-0.0367,-0.0151,-0.0135,-0.0064,-0.005,-0.0059,-0.0021,-0.0019,0.0295,0.0297,0,0,0,-0.0462,-0.0443,-0.042,-0.0332,-0.0331,-0.0372,-0.0363,-0.0144,-0.0138,-0.0047,-0.0056,-0.0019,-0.0016,0.0294,0.0296,0.0272,0,0,0,-0.0464,-0.0471,-0.0424,-0.0433,-0.0337,-0.0256,-0.0361,-0.0152,-0.0129,-0.0058,-0.0019,-0.0013,0.0292,0.0295,0.0269,0.027,0,0,0,-0.0477,-0.0473,-0.0464,-0.0434,-0.0401,-0.026,-0.024,-0.0147,-0.0135,-0.0023,-0.0013,0.0291,0.0294,0.0267,0.0267,0.0333,0,0,0,-0.0493,-0.0496,-0.0464,-0.0464,-0.0402,-0.0319,-0.0242,-0.0153,-0.0063,-0.0018,0.0292,0.0296,0.0266,0.0264,0.033,0.0353,0.0368,0,0,-0.0512,-0.0498,-0.05,-0.047,-0.0448,-0.0333,-0.0215,-0.0069,0.0027,0.0232,0.0239,0.027,0.0266,0.0333,0.055,0.0558,0,0,0,-0.0517,-0.0516,-0.0506,-0.048,-0.0408,-0.0256,-0.0129,-0.0023,0.0185,0.009,0.0347,0.0348,0.0388,0.0399,0.0407,0.0312,0.0311,0.0311,0.0311,-0.0531,-0.0519,-0.0508,-0.0457,-0.0371,-0.0181,-0.0037,0.0162,0.0213,0.0324,0.0384,0.0497,0.051,0.0516,0.0444,0.0444,0.0444,0.0444,0.0444,-0.0553,-0.0543,-0.0481,-0.0465,-0.0301,-0.0154,0.013,0.0219,0.0443,0.0459,0.05,0.0443,0.0523,0.0443,0.0444,0.0444,0.0444,0.0444,0.0444,-0.0577,-0.0563,-0.0552,-0.0453,-0.0276,-0.0067,0.016,0.0338,0.0457,0.0514,0.0574,0.0574,0.0459,0.0546,0.0547,0.0547,0.0547,0.0547,0.0548,-0.0585,-0.0575,-0.0492,-0.0393,-0.028,-0.0073,0.0222,0.0333,0.0511,0.0589,0.059,0.0533,0.0529,0.047,0.0552,0.0552,0.0551,0.0551,0.055,-0.0572,-0.0528,-0.0427,-0.0331,-0.0102,0.0056,0.0249,0.0454,0.0573,0.0629,0.0649,0.0645,0.0665,0.0659,0.0607,0.072,0.072,0.072,0.072,-0.0503,-0.0493,-0.0297,-0.0144,0.0011,0.015,0.0362,0.0551,0.0678,0.0745,0.0744,0.0701,0.0694,0.0713,0.0706,0.0654,0.0779,0.0779,0.0779,-0.0399,-0.0373,-0.0207,-0.0092,0.0071,0.0205,0.0432,0.0648,0.0737,0.0779,0.0729,0.0729,0.066,0.0652,0.0674,0.0666,0.0579,0,0]}],[{"header":{"parameterUnit":"m.s-1","parameterCategory":2,"la1":30.2992,"la2":30.254,"lo1":-89.0895,"lo2":-89.0443,"dy":0.0025,"dx":0.0025,"nx":19,"ny":19,"refTime":"2026-05-22T03:00:00:Z","depth":"4","parameterNumber":2,"parameterNumberName":"U-component_of_CURRENTS"},"data":[0,0,0,-0.0554,-0.0557,-0.0623,-0.0623,-0.0414,-0.0411,0,0,0,0,0,0,0,0,0,0,0,-0.051,-0.0511,-0.0554,-0.0558,-0.0623,-0.0623,-0.0414,-0.0411,0,0,0,0,0,0,0,0,0,0,0,-0.051,-0.0511,-0.0512,-0.0558,-0.0623,-0.0623,-0.0415,-0.0427,0,0,0,0,0,0,0,0,0,0,-0.0396,-0.0441,-0.0511,-0.0512,-0.0559,-0.0623,-0.0623,-0.0431,-0.0426,-0.0314,0,-0.035,0,-0.0398,-0.0395,-0.0394,0,0,0,-0.0513,-0.0446,-0.0447,-0.0513,-0.056,-0.0623,-0.0581,-0.043,-0.0425,-0.0307,-0.0348,-0.0343,-0.0395,-0.0393,-0.0392,-0.0201,-0.0201,0,0,-0.051,-0.0523,-0.0452,-0.0445,-0.0604,-0.0579,-0.0584,-0.043,-0.0438,-0.0348,-0.034,-0.0391,-0.0392,-0.039,-0.0201,-0.0201,0,0,0,-0.0529,-0.0521,-0.0531,-0.045,-0.0499,-0.0582,-0.0587,-0.0445,-0.0445,-0.0339,-0.0389,-0.039,-0.0387,-0.0201,-0.0201,-0.0204,0,0,0,-0.0525,-0.0536,-0.053,-0.0538,-0.0505,-0.0523,-0.0605,-0.0455,-0.0441,-0.039,-0.039,-0.0385,-0.0202,-0.0201,-0.0204,-0.0172,0,0,0,-0.0503,-0.0534,-0.0547,-0.0539,-0.0589,-0.0527,-0.052,-0.0454,-0.0471,-0.0394,-0.0384,-0.0202,-0.0201,-0.0205,-0.0174,-0.0143,0,0,0,-0.0503,-0.0519,-0.0548,-0.0572,-0.0589,-0.0596,-0.0522,-0.0488,-0.0426,-0.0389,-0.0201,-0.0201,-0.0205,-0.0175,-0.0144,-0.0187,0,0,0,-0.0509,-0.0521,-0.0527,-0.0555,-0.0555,-0.0582,-0.0557,-0.0436,-0.0373,-0.0223,-0.0221,-0.0204,-0.0174,-0.0143,-0.0153,0,0,0,0,-0.0518,-0.0521,-0.0526,-0.0545,-0.0559,-0.0541,-0.05,-0.0449,-0.0314,-0.0348,-0.0191,-0.0171,-0.0153,-0.0181,-0.0198,-0.0198,-0.0198,-0.0198,-0.0198,-0.051,-0.0508,-0.051,-0.051,-0.0511,-0.0492,-0.0447,-0.0362,-0.0313,-0.0254,-0.0166,-0.0129,-0.0161,-0.0175,-0.0175,-0.0175,-0.0175,-0.0175,-0.0175,-0.0486,-0.048,-0.0478,-0.047,-0.0453,-0.0414,-0.0337,-0.0295,-0.0177,-0.0162,-0.0144,-0.0173,-0.0175,-0.0175,-0.0175,-0.0175,-0.0175,-0.0175,-0.0175,-0.0464,-0.0461,-0.0461,-0.0433,-0.0367,-0.0324,-0.0253,-0.0176,-0.013,-0.0103,-0.0105,-0.0109,-0.0116,-0.0084,-0.0083,-0.0083,-0.0083,-0.0083,-0.0082,-0.0437,-0.0439,-0.0418,-0.0374,-0.0338,-0.0263,-0.0173,-0.0173,-0.0122,-0.0077,-0.0073,-0.0097,-0.01,-0.0109,-0.0078,-0.0079,-0.008,-0.008,-0.008,-0.0404,-0.0407,-0.0374,-0.0355,-0.0298,-0.0247,-0.019,-0.0164,-0.0144,-0.0131,-0.0074,-0.0075,-0.0066,-0.0069,-0.0077,-0.0035,-0.0036,-0.0036,0,-0.0383,-0.038,-0.0348,-0.0328,-0.0305,-0.0257,-0.0253,-0.0254,-0.0171,-0.0107,-0.0185,-0.0121,-0.0121,-0.0117,-0.012,-0.0132,0,0,0,-0.0361,-0.0358,-0.0332,-0.033,-0.0305,-0.0282,-0.0251,-0.0221,-0.0131,-0.0195,-0.0046,-0.0043,-0.0253,-0.0066,-0.0054,-0.0058,-0.007,0,0]},{"header":{"parameterUnit":"m.s-1","parameterCategory":2,"la1":30.2992,"la2":30.254,"lo1":-89.0895,"lo2":-89.0443,"dy":0.0025,"dx":0.0025,"nx":19,"ny":19,"refTime":"2026-05-22T03:00:00:Z","depth":"4","parameterNumber":3,"parameterNumberName":"V-component_of_CURRENTS"},"data":[0,0,0,0.0207,0.0207,0.0139,0.0139,-0.0017,-0.0018,0,0,0,0,0,0,0,0,0,0,0,0.0224,0.0225,0.0207,0.0207,0.0139,0.0138,-0.0017,-0.0018,0,0,0,0,0,0,0,0,0,0,0,0.0224,0.0225,0.0225,0.0207,0.014,0.0138,-0.0017,0.0042,0,0,0,0,0,0,0,0,0,0,0.0112,0.0154,0.0225,0.0225,0.0207,0.014,0.0138,0.0045,0.0038,0.0007,0,0.0023,0,0.0019,-0.0026,-0.0027,0,0,0,0.0166,0.016,0.015,0.0225,0.0207,0.014,0.0158,0.0041,0.0033,-0.0002,0.0021,0.0016,0.0016,-0.0027,-0.0028,-0.0127,-0.0127,0,0,0.0169,0.0193,0.0156,0.0146,0.0223,0.0161,0.0157,0.0037,0.0037,0.002,0.0012,0.0014,-0.0028,-0.0029,-0.0127,-0.0127,0,0,0,0.0208,0.0196,0.0189,0.0152,0.0157,0.016,0.0155,0.0041,0.0043,0.0011,0.0012,-0.0029,-0.003,-0.0127,-0.0127,-0.0043,0,0,0,0.0208,0.0222,0.0192,0.0202,0.0161,0.0109,0.0162,0.005,0.0037,0.0013,-0.0029,-0.0031,-0.0127,-0.0127,-0.0045,0.0013,0,0,0,0.0222,0.0223,0.0227,0.0204,0.0195,0.0112,0.0104,0.0047,0.004,-0.0027,-0.0032,-0.0126,-0.0127,-0.0047,0.0009,0.0056,0,0,0,0.0228,0.0248,0.0228,0.0253,0.0197,0.0191,0.0104,0.0059,0.0008,-0.0029,-0.0127,-0.0127,-0.0047,0.0006,0.0053,-0.0021,0,0,0,0.0254,0.0252,0.0267,0.0249,0.0269,0.0195,0.0187,0.007,-0.0014,-0.0099,-0.0101,-0.0044,0.0009,0.0055,-0.0047,0,0,0,0,0.0275,0.0289,0.0293,0.0302,0.0288,0.0263,0.0169,0.0104,-0.0012,-0.0037,-0.0077,-0.0046,-0.0019,-0.0074,-0.0129,-0.0129,-0.0129,-0.0129,-0.0129,0.0299,0.0308,0.0338,0.0351,0.0358,0.0286,0.0237,0.0124,0.0048,-0.0006,-0.0002,0.0059,-0.0,-0.0044,-0.0043,-0.0043,-0.0043,-0.0042,-0.0042,0.0333,0.0354,0.0377,0.0433,0.0425,0.0424,0.0296,0.0213,0.0128,0.0043,0.0065,-0.0013,-0.0035,-0.0036,-0.0037,-0.0038,-0.0039,-0.0039,-0.004,0.0352,0.0364,0.0417,0.0495,0.0519,0.0494,0.0417,0.032,0.0216,0.0212,0.0139,0.012,0.0143,0.0219,0.0219,0.022,0.022,0.022,0.0221,0.0348,0.0383,0.0463,0.0545,0.0602,0.0599,0.0487,0.0389,0.0298,0.0237,0.0243,0.0148,0.0139,0.0156,0.0228,0.0226,0.0226,0.0225,0.0224,0.0338,0.0371,0.05,0.0577,0.0641,0.0573,0.0546,0.038,0.0321,0.0249,0.0239,0.0236,0.0205,0.0196,0.0214,0.0306,0.0305,0.0304,0,0.032,0.0341,0.0503,0.0582,0.0567,0.0526,0.0393,0.0292,0.0223,0.026,0.0242,0.0233,0.023,0.0191,0.0182,0.02,0,0,0,0.0281,0.0372,0.0464,0.0562,0.0509,0.0357,0.0321,0.0261,0.035,0.0181,0.0289,0.0293,0.0115,0.0249,0.0196,0.0186,0.021,0,0]}]]